{"data":{"norad_id":55290,"epoch":"2026-09-20T22:21:30.987360Z","epoch_age_seconds":55454,"freshness":"FRESH","line1":"1 55290U 23010X   26263.93160865  .00000562  00000+0  54883-4 0  9998","line2":"2 55290  69.9980 252.2144 0003711 269.1603  90.9131 14.98329235202512","mean_motion":14.98329235,"eccentricity":0.0003711,"inclination_deg":69.998,"raan_deg":252.2144,"arg_perigee_deg":269.1603,"mean_anomaly_deg":90.9131,"bstar":5.4883e-5,"rev_number":20251,"period_min":96.107048194918,"perigee_km":569.47903918508,"apogee_km":574.63747410456,"semimajor_km":6950.1952566448,"source":"CELESTRAK","updated_at":"2026-09-21T09:00:33.169047Z"}}